• In Hungary
  • List of Countries
  • For 7 days
  • Water Temperature
  • Satellite Maps
  • Weather Map
  • News
  • Weather Widgets
  • user-avatar
    Login

    Hourly Weather Novobikmetovo

    Today, 26 May, Saturday

    Time Temperature Precipitation Wind Pressure Humidity
    00:00 +3°C° 0 mm 5 mps 750 mmHg 59%
    01:00 +2°C° 0 mm 6 mps 750 mmHg 60%
    02:00 +2°C° 0 mm 6 mps 751 mmHg 59%
    03:00 +1°C° 0 mm 6 mps 751 mmHg 58%
    04:00 +1°C° 0 mm 5 mps 751 mmHg 60%
    05:00 +1°C° 0 mm 6 mps 752 mmHg 58%
    06:00 0°C° 0 mm 7 mps 752 mmHg 56%
    07:00 +1°C° 0 mm 8 mps 752 mmHg 54%
    08:00 +2°C° 0 mm 8 mps 753 mmHg 52%
    09:00 +4°C° 0 mm 8 mps 753 mmHg 50%
    10:00 +5°C° 0 mm 8 mps 753 mmHg 47%
    11:00 +6°C° 0 mm 8 mps 754 mmHg 46%
    12:00 +7°C° 0 mm 8 mps 754 mmHg 44%
    13:00 +9°C° 0 mm 8 mps 754 mmHg 43%
    14:00 +9°C° 0 mm 8 mps 754 mmHg 43%
    15:00 +9°C° 0 mm 7 mps 754 mmHg 43%
    16:00 +10°C° 0 mm 7 mps 754 mmHg 42%
    17:00 +10°C° 0 mm 6 mps 754 mmHg 47%
    18:00 +10°C° 0 mm 4 mps 755 mmHg 52%
    19:00 +10°C° 0 mm 3 mps 755 mmHg 57%
    20:00 +8°C° 0 mm 3 mps 755 mmHg 59%
    21:00 +7°C° 0 mm 2 mps 755 mmHg 60%
    22:00 +6°C° 0 mm 2 mps 755 mmHg 62%
    23:00 +5°C° 0 mm 2 mps 755 mmHg 62%

    Tomorrow, 27 May, Sunday

    Time Temperature Precipitation Wind Pressure Humidity
    00:00 +5°C° 0 mm 2 mps 755 mmHg 63%
    01:00 +4°C° 0 mm 2 mps 755 mmHg 63%
    02:00 +4°C° 0 mm 2 mps 755 mmHg 65%
    03:00 +3°C° 0 mm 3 mps 755 mmHg 67%
    04:00 +3°C° 0 mm 3 mps 755 mmHg 69%
    05:00 +4°C° 0 mm 4 mps 754 mmHg 68%
    06:00 +6°C° 0 mm 4 mps 754 mmHg 66%
    07:00 +8°C° 0 mm 5 mps 754 mmHg 65%
    08:00 +9°C° 0 mm 6 mps 753 mmHg 63%
    09:00 +11°C° 0 mm 7 mps 752 mmHg 60%
    10:00 +14°C° 0 mm 7 mps 752 mmHg 58%
    11:00 +16°C° 0 mm 8 mps 751 mmHg 58%
    12:00 +17°C° 0 mm 8 mps 750 mmHg 57%
    13:00 +18°C° 0 mm 9 mps 749 mmHg 57%
    14:00 +18°C° 0.1 mm 9 mps 748 mmHg 59%
    15:00 +18°C° 0.1 mm 9 mps 747 mmHg 61%
    16:00 +18°C° 0.1 mm 10 mps 747 mmHg 63%
    17:00 +17°C° 0.6 mm 9 mps 746 mmHg 68%
    18:00 +16°C° 0.6 mm 8 mps 746 mmHg 73%
    19:00 +15°C° 0.6 mm 8 mps 745 mmHg 78%
    20:00 +14°C° 0.8 mm 6 mps 744 mmHg 83%
    21:00 +13°C° 0.8 mm 5 mps 744 mmHg 88%
    22:00 +12°C° 0.8 mm 4 mps 744 mmHg 92%
    23:00 +11°C° 2.3 mm 4 mps 743 mmHg 93%

    Day after tomorrow, 28 May, Monday

    Time Temperature Precipitation Wind Pressure Humidity
    00:00 +9°C° 2.3 mm 5 mps 743 mmHg 93%
    01:00 +9°C° 2.3 mm 5 mps 742 mmHg 93%
    02:00 +8°C° 0.8 mm 5 mps 742 mmHg 93%
    03:00 +7°C° 0.8 mm 4 mps 742 mmHg 92%
    04:00 +6°C° 0.8 mm 4 mps 742 mmHg 92%
    05:00 +6°C° 0 mm 4 mps 742 mmHg 89%
    06:00 +7°C° 0 mm 5 mps 743 mmHg 86%
    07:00 +7°C° 0 mm 5 mps 743 mmHg 83%
    08:00 +7°C° 0.3 mm 5 mps 744 mmHg 80%
    09:00 +7°C° 0.3 mm 6 mps 744 mmHg 77%
    10:00 +8°C° 0.3 mm 6 mps 744 mmHg 74%
    11:00 +8°C° 0.3 mm 7 mps 744 mmHg 69%
    12:00 +9°C° 0.3 mm 7 mps 745 mmHg 65%
    13:00 +9°C° 0.3 mm 8 mps 745 mmHg 60%
    14:00 +9°C° 0.1 mm 8 mps 745 mmHg 57%
    15:00 +9°C° 0.1 mm 8 mps 746 mmHg 55%
    16:00 +9°C° 0.1 mm 8 mps 746 mmHg 53%
    17:00 +8°C° 0 mm 7 mps 747 mmHg 56%
    18:00 +7°C° 0 mm 6 mps 747 mmHg 58%
    19:00 +7°C° 0 mm 5 mps 747 mmHg 61%
    20:00 +6°C° 0 mm 5 mps 748 mmHg 63%
    21:00 +5°C° 0 mm 5 mps 748 mmHg 64%
    22:00 +4°C° 0 mm 4 mps 749 mmHg 65%
    23:00 +3°C° 0 mm 4 mps 749 mmHg 67%

    29 May, Tuesday

    Time Temperature Precipitation Wind Pressure Humidity
    00:00 +3°C° 0 mm 4 mps 749 mmHg 68%
    01:00 +1°C° 0 mm 4 mps 749 mmHg 69%
    02:00 +1°C° 0 mm 4 mps 749 mmHg 71%
    03:00 0°C° 0 mm 4 mps 749 mmHg 73%
    04:00 -1°C° 0 mm 4 mps 749 mmHg 76%
    05:00 +1°C° 0 mm 4 mps 749 mmHg 73%
    06:00 +3°C° 0 mm 4 mps 749 mmHg 70%
    07:00 +4°C° 0 mm 4 mps 748 mmHg 67%
    08:00 +5°C° 0 mm 4 mps 748 mmHg 62%
    09:00 +6°C° 0 mm 4 mps 747 mmHg 58%
    10:00 +8°C° 0 mm 5 mps 747 mmHg 54%
    11:00 +7°C° 0.4 mm 4 mps 746 mmHg 61%
    12:00 +7°C° 0.4 mm 4 mps 746 mmHg 68%
    13:00 +6°C° 0.4 mm 4 mps 745 mmHg 75%
    14:00 +6°C° 0.2 mm 4 mps 745 mmHg 76%
    15:00 +8°C° 0.2 mm 3 mps 744 mmHg 77%
    16:00 +8°C° 0.2 mm 3 mps 744 mmHg 78%
    17:00 +9°C° 0 mm 3 mps 744 mmHg 77%
    18:00 +9°C° 0 mm 2 mps 743 mmHg 77%
    19:00 +9°C° 0 mm 2 mps 743 mmHg 77%
    20:00 +8°C° 0 mm 2 mps 743 mmHg 81%
    21:00 +7°C° 0 mm 2 mps 743 mmHg 85%
    22:00 +5°C° 0 mm 2 mps 743 mmHg 89%
    23:00 +5°C° 0.1 mm 2 mps 743 mmHg 91%

    30 May, Wednesday

    Time Temperature Precipitation Wind Pressure Humidity
    00:00 +4°C° 0.1 mm 3 mps 743 mmHg 92%
    01:00 +3°C° 0.1 mm 3 mps 742 mmHg 93%
    02:00 +3°C° 0 mm 3 mps 743 mmHg 94%
    03:00 +2°C° 0 mm 3 mps 743 mmHg 94%
    04:00 +2°C° 0 mm 3 mps 743 mmHg 95%
    05:00 +3°C° 0 mm 3 mps 743 mmHg 91%
    06:00 +4°C° 0 mm 3 mps 743 mmHg 88%
    07:00 +5°C° 0 mm 3 mps 743 mmHg 84%
    08:00 +8°C° 0.1 mm 3 mps 744 mmHg 77%
    09:00 +9°C° 0.1 mm 3 mps 744 mmHg 69%
    10:00 +10°C° 0.1 mm 3 mps 744 mmHg 61%
    11:00 +11°C° 0.1 mm 3 mps 744 mmHg 57%
    12:00 +11°C° 0.1 mm 3 mps 744 mmHg 53%
    13:00 +13°C° 0.1 mm 2 mps 744 mmHg 49%
    14:00 +13°C° 0 mm 2 mps 744 mmHg 49%
    15:00 +13°C° 0 mm 2 mps 744 mmHg 48%
    16:00 +13°C° 0 mm 2 mps 744 mmHg 48%
    17:00 +13°C° 0 mm 2 mps 744 mmHg 52%
    18:00 +12°C° 0 mm 2 mps 744 mmHg 56%
    19:00 +12°C° 0 mm 2 mps 744 mmHg 61%
    20:00 +9°C° 0 mm 2 mps 744 mmHg 61%
    21:00 +7°C° 0 mm 2 mps 744 mmHg 62%
    22:00 +6°C° 0 mm 2 mps 745 mmHg 63%
    23:00 +6°C° 0 mm 1 mps 745 mmHg 64%

    31 May, Thursday

    Time Temperature Precipitation Wind Pressure Humidity
    00:00 +5°C° 0 mm 1 mps 745 mmHg 65%
    01:00 +5°C° 0 mm 1 mps 745 mmHg 66%
    02:00 +4°C° 0 mm 1 mps 745 mmHg 67%
    03:00 +4°C° 0 mm 1 mps 745 mmHg 67%
    04:00 +3°C° 0 mm 1 mps 745 mmHg 67%
    05:00 +5°C° 0 mm 1 mps 745 mmHg 64%
    06:00 +7°C° 0 mm 1 mps 745 mmHg 61%
    07:00 +9°C° 0 mm 1 mps 745 mmHg 58%
    08:00 +10°C° 0 mm 1 mps 745 mmHg 55%
    09:00 +10°C° 0 mm 2 mps 745 mmHg 52%
    10:00 +12°C° 0 mm 2 mps 745 mmHg 48%
    11:00 +13°C° 0 mm 2 mps 745 mmHg 48%
    12:00 +13°C° 0 mm 2 mps 745 mmHg 47%
    13:00 +13°C° 0 mm 2 mps 745 mmHg 47%
    14:00 +13°C° 0 mm 2 mps 744 mmHg 47%
    15:00 +14°C° 0 mm 1 mps 744 mmHg 47%
    16:00 +14°C° 0 mm 1 mps 744 mmHg 48%
    17:00 +13°C° 0 mm 1 mps 744 mmHg 52%
    18:00 +13°C° 0 mm 1 mps 743 mmHg 57%
    19:00 +12°C° 0 mm 1 mps 743 mmHg 62%
    20:00 +11°C° 0 mm 1 mps 743 mmHg 63%
    21:00 +10°C° 0 mm 1 mps 743 mmHg 65%
    22:00 +8°C° 0 mm 1 mps 743 mmHg 66%
    23:00 +8°C° 0 mm 1 mps 742 mmHg 68%
    Show more